GW4558 Weather Reports


time (UTC)temp
C
wind
direction
speed
KPH
gust
KPH
rain 1hr
cm
rain 24hr
cm
rain mn
cm
humidity
%
barometer
mb
20260505071546 18 209 0.0 14.5 0.00 0.00 0.00 72 1004.8
20260505070042 18 205 3.2 9.7 0.00 0.00 0.00 72 1005.0
20260505064537 18 149 3.2 12.9 0.00 0.00 0.00 72 1004.9
20260505063039 18 187 3.2 12.9 0.00 0.00 0.00 72 1004.8
20260505061534 18 182 3.2 12.9 0.00 0.00 0.00 72 1004.5
20260505060053 18 189 4.8 14.5 0.00 0.00 0.00 72 1004.7
20260505054536 18 182 3.2 14.5 0.00 0.00 0.00 73 1004.7
20260505053039 18 189 1.6 9.7 0.00 0.00 0.00 73 1005.0
20260505051537 18 208 1.6 6.4 0.00 0.00 0.00 73 1005.2
20260505041549 18 178 1.6 6.4 0.00 0.00 0.00 70 1005.4
20260505040034 19 0 0.0 1.6 0.00 0.00 0.00 68 1005.6
20260505034537 20 0 0.0 1.6 0.00 0.00 0.00 66 1005.8
20260505033038 21 0 0.0 9.7 0.00 0.00 0.00 65 1005.6
20260505031538 21 186 3.2 17.7 0.00 0.00 0.00 63 1005.4
20260505030044 21 184 4.8 17.7 0.00 0.00 0.00 62 1005.2
20260505024538 21 163 6.4 17.7 0.00 0.00 0.00 62 1005.2
20260505023037 21 170 3.2 12.9 0.00 0.00 0.00 62 1005.2
20260505021536 21 190 1.6 20.9 0.00 0.00 0.00 61 1004.9
20260505020041 21 192 1.6 12.9 0.00 0.00 0.00 61 1004.6
20260505014559 22 195 3.2 11.3 0.00 0.00 0.00 60 1004.7
20260505013047 22 166 1.6 8.0 0.00 0.00 0.00 60 1004.4
20260505011540 22 182 1.6 11.3 0.00 0.00 0.00 58 1004.4
20260505010048 22 236 0.0 8.0 0.00 0.00 0.00 57 1004.1
20260505004546 23 232 3.2 11.3 0.00 0.00 0.00 56 1003.8
20260505003053 23 173 3.2 11.3 0.00 0.00 0.00 56 1003.7
20260505001534 24 171 3.2 12.9 0.00 0.00 0.00 56 1003.8
20260505000037 24 200 3.2 14.5 0.00 0.00 0.00 55 1003.8
20260504234535 25 142 3.2 20.9 0.00 0.00 0.00 54 1003.7
20260504233037 25 174 3.2 12.9 0.00 0.00 0.00 54 1003.8
20260504231534 25 201 6.4 17.7 0.00 0.00 0.00 53 1004.0
20260504230037 25 240 6.4 19.3 0.00 0.00 0.00 52 1004.0
20260504224537 26 231 4.8 19.3 0.00 0.00 0.00 51 1004.0
20260504223055 26 180 8.0 29.0 0.00 0.00 0.00 52 1004.2
20260504221540 25 144 8.0 19.3 0.00 0.00 0.00 53 1004.2
20260504220037 25 192 3.2 29.0 0.00 0.00 0.00 53 1004.3
20260504214534 25 172 4.8 17.7 0.00 0.00 0.00 55 1004.3
20260504213032 25 25 8.0 20.9 0.00 0.00 0.00 52 1004.2
20260504211603 25 160 4.8 24.1 0.00 0.00 0.00 52 1004.3
20260504210044 26 202 9.7 27.4 0.00 0.00 0.00 50 1004.4
20260504204538 26 168 4.8 24.1 0.00 0.00 0.00 51 1004.6
20260504203037 26 157 11.3 30.6 0.00 0.00 0.00 50 1004.8
20260504201538 26 161 8.0 27.4 0.00 0.00 0.00 51 1004.9
20260504200037 26 184 6.4 25.7 0.00 0.00 0.00 49 1005.0
20260504194537 26 173 4.8 25.7 0.00 0.00 0.00 51 1005.3
20260504193035 26 182 8.0 27.4 0.00 0.00 0.00 51 1005.3
20260504191537 26 140 8.0 22.5 0.00 0.00 0.00 49 1005.6
20260504190041 26 152 9.7 29.0 0.00 0.00 0.00 50 1005.5
20260504184546 26 148 3.2 27.4 0.00 0.00 0.00 53 1005.5
20260504183037 26 84 4.8 17.7 0.00 0.00 0.00 52 1005.8
20260504181536 26 107 6.4 20.9 0.00 0.00 0.00 53 1005.9
20260504180034 26 142 6.4 22.5 0.00 0.00 0.00 53 1005.9
20260504174537 25 241 3.2 20.9 0.00 0.00 0.00 56 1005.9
20260504173037 25 157 4.8 30.6 0.00 0.00 0.00 52 1006.0
20260504171540 25 181 4.8 25.7 0.00 0.00 0.00 54 1005.8
20260504081541 18 196 4.8 16.1 0.00 0.00 0.00 60 1008.5